W9PPN Weather Reports


time (UTC)temp
C
wind
direction
speed
KPH
gust
KPH
rain 1hr
cm
rain 24hr
cm
rain mn
cm
humidity
%
barometer
mb
20260503030501 10 92 0.0 0.0 0.00 0.18 0.18 44 1003.1
20260503030225 10 92 0.0 0.0 0.00 0.18 0.18 44 1003.1
20260503025501 10 92 0.0 0.0 0.00 0.18 0.18 41 1003.4
20260503025001 10 92 0.0 0.0 0.00 0.18 0.18 40 1003.4
20260503024459 10 92 0.0 0.0 0.00 0.18 0.18 40 1003.4
20260503023957 10 92 0.0 0.0 0.00 0.18 0.18 41 1003.6
20260503023456 10 92 0.0 0.0 0.00 0.18 0.18 41 1003.6
20260503022954 10 92 0.0 0.0 0.00 0.18 0.18 44 1003.6
20260503022454 10 92 0.0 0.0 0.00 0.18 0.18 44 1003.6
20260503021955 10 92 0.0 0.0 0.00 0.18 0.18 44 1003.6
20260503021457 10 92 0.0 0.0 0.00 0.18 0.18 42 1003.6
20260503020951 10 92 0.0 0.0 0.00 0.18 0.18 34 1003.6
20260503020700 10 92 0.0 0.0 0.00 0.18 0.18 34 1003.6
20260503015927 10 92 0.0 0.0 0.00 0.18 0.18 35 1003.7
20260503015415 10 92 0.0 0.0 0.00 0.18 0.18 35 1003.7
20260503014902 10 92 0.0 0.0 0.00 0.18 0.18 35 1003.7
20260503014349 10 92 0.0 0.0 0.00 0.18 0.18 34 1003.9
20260503013838 10 92 0.0 0.0 0.00 0.18 0.18 34 1003.9
20260503013326 10 92 0.0 0.0 0.00 0.18 0.18 33 1003.9
20260503013035 10 92 0.0 0.0 0.00 0.18 0.18 33 1004.0
20260503012305 10 92 0.0 0.0 0.00 0.18 0.18 34 1004.0
20260503011750 10 92 0.0 0.0 0.00 0.18 0.18 37 1004.0
20260503011237 10 92 0.0 0.0 0.00 0.18 0.18 35 1004.0
20260503010726 10 92 0.0 0.0 0.00 0.18 0.18 33 1004.0
20260503010214 10 92 0.0 0.0 0.00 0.18 0.18 34 1004.0
20260503005932 10 92 0.0 0.0 0.00 0.18 0.18 34 1004.2
20260503005148 10 92 0.0 0.0 0.00 0.18 0.18 34 1004.2
20260503004637 10 92 0.0 0.0 0.00 0.18 0.18 33 1004.2
20260503004353 10 92 0.0 0.0 0.00 0.18 0.18 34 1004.5
20260503003614 10 92 0.0 0.0 0.00 0.18 0.18 34 1004.5
20260503003104 10 92 0.0 0.0 0.00 0.18 0.18 35 1004.5
20260503002555 10 92 0.0 0.0 0.00 0.18 0.18 33 1004.7
20260503002049 10 92 0.0 0.0 0.00 0.18 0.18 34 1004.7
20260503001543 10 92 0.0 0.0 0.00 0.18 0.18 34 1004.7
20260503001038 10 92 0.0 0.0 0.00 0.18 0.18 34 1004.8
20260503000530 10 92 0.0 0.0 0.00 0.18 0.18 34 1004.8
20260503000023 10 92 0.0 0.0 0.00 0.18 0.18 34 1004.8
20260502235517 10 92 0.0 0.0 0.00 0.18 0.18 34 1005.2
20260502235011 10 92 0.0 0.0 0.00 0.18 0.18 37 1005.2
20260502234504 10 92 0.0 0.0 0.00 0.18 0.18 35 1005.2
20260502234219 10 92 0.0 0.0 0.00 0.18 0.18 34 1005.2
20260502233452 11 92 0.0 4.8 0.00 0.18 0.18 33 1005.2
20260502232948 11 92 0.0 4.8 0.00 0.18 0.18 32 1005.3
20260502232440 11 92 1.6 9.7 0.00 0.18 0.18 32 1005.3
20260502232153 11 92 3.2 9.7 0.00 0.18 0.18 32 1005.3
20260502231429 11 92 3.2 9.7 0.00 0.18 0.18 35 1005.3
20260502230925 11 92 3.2 9.7 0.00 0.18 0.18 32 1005.3
20260502230418 11 91 3.2 8.0 0.00 0.18 0.18 33 1005.3
20260502225912 10 91 4.8 11.3 0.00 0.18 0.18 33 1005.6
20260502225404 10 91 4.8 11.3 0.00 0.18 0.18 32 1005.6
20260502224854 11 91 4.8 11.3 0.00 0.18 0.18 32 1005.6
20260502224354 11 91 4.8 11.3 0.00 0.18 0.18 31 1005.8
20260502223847 11 87 4.8 14.5 0.00 0.18 0.18 30 1005.8
20260502223341 11 83 6.4 14.5 0.00 0.18 0.18 31 1005.8
20260502222836 11 93 8.0 14.5 0.00 0.18 0.18 32 1005.9
20260502222332 11 99 6.4 14.5 0.00 0.18 0.18 30 1005.9
20260502221823 11 99 4.8 11.3 0.00 0.18 0.18 32 1005.9
20260502221316 11 99 4.8 11.3 0.00 0.18 0.18 30 1006.1
20260502220811 11 114 3.2 9.7 0.00 0.18 0.18 30 1006.1
20260502220532 11 112 3.2 9.7 0.00 0.18 0.18 30 1006.1
20260502215754 11 104 3.2 9.7 0.00 0.18 0.18 32 1006.3
20260502215253 11 91 4.8 9.7 0.00 0.18 0.18 30 1006.3
20260502214746 11 92 4.8 9.7 0.03 0.18 0.18 30 1006.3
20260502214459 11 91 1.6 12.9 0.03 0.18 0.18 30 1006.4
20260502213735 11 104 3.2 12.9 0.03 0.18 0.18 30 1006.4
20260502213228 11 104 4.8 12.9 0.03 0.18 0.18 30 1006.4
20260502212722 11 104 4.8 12.9 0.03 0.18 0.18 29 1006.8
20260502212218 11 90 3.2 11.3 0.03 0.18 0.18 32 1006.8
20260502211710 11 89 3.2 11.3 0.03 0.18 0.18 32 1006.8
20260502211206 11 88 4.8 12.9 0.03 0.18 0.18 31 1006.9
20260502210652 11 103 4.8 12.9 0.03 0.18 0.18 29 1006.9
20260502210154 11 106 6.4 14.5 0.03 0.18 0.18 32 1006.9
20260502205647 11 97 4.8 14.5 0.03 0.18 0.18 30 1007.1
20260502205410 11 106 4.8 14.5 0.00 0.15 0.18 31 1007.1
20260502204854 11 93 4.8 14.5 0.00 0.15 0.15 32 1007.1
20260502204350 11 101 4.8 9.7 0.00 0.15 0.15 32 1007.4
20260502203624 11 100 3.2 8.0 0.00 0.15 0.15 31 1007.4
20260502203113 11 99 3.2 8.0 0.00 0.15 0.15 30 1007.4
20260502202607 12 99 4.8 16.1 0.00 0.15 0.15 31 1007.6
20260502202101 12 96 6.4 16.1 0.00 0.15 0.15 33 1007.6
20260502201556 12 95 8.0 16.1 0.00 0.15 0.15 29 1007.6
20260502201048 12 106 8.0 16.1 0.00 0.15 0.15 31 1008.0
20260502200542 12 103 6.4 14.5 0.00 0.15 0.15 31 1008.0
20260502200036 12 96 6.4 12.9 0.00 0.15 0.15 30 1008.0
20260502195531 12 143 4.8 16.1 0.00 0.15 0.15 30 1008.1
20260502195024 12 94 4.8 16.1 0.00 0.15 0.15 30 1008.1
20260502194518 12 103 6.4 17.7 0.00 0.15 0.15 32 1008.1
20260502194013 12 93 6.4 17.7 0.00 0.15 0.15 30 1008.5
20260502193507 12 104 6.4 22.5 0.00 0.15 0.15 32 1008.5
20260502193002 11 98 8.0 22.5 0.00 0.15 0.15 32 1008.5
20260502192500 11 72 8.0 19.3 0.00 0.15 0.15 31 1008.6
20260502192000 11 102 9.7 19.3 0.00 0.15 0.15 31 1008.6
20260502191458 11 68 9.7 19.3 0.00 0.15 0.15 31 1008.6
20260502190958 11 101 9.7 17.7 0.00 0.15 0.15 31 1008.9
20260502190459 11 106 9.7 16.1 0.00 0.15 0.15 30 1008.9
20260502185956 11 79 8.0 16.1 0.00 0.15 0.15 33 1008.9
20260502185457 11 79 8.0 19.3 0.00 0.15 0.15 34 1009.1
20260502185219 11 78 9.7 19.3 0.00 0.15 0.15 33 1009.1
20260502184718 11 79 9.7 19.3 0.00 0.15 0.15 32 1009.1
20260502183954 11 76 9.7 19.3 0.00 0.15 0.15 31 1009.4
20260502183457 11 64 8.0 16.1 0.00 0.15 0.15 32 1009.4
20260502182953 11 83 8.0 16.1 0.03 0.15 0.15 32 1009.6
20260502182453 11 79 6.4 16.1 0.03 0.15 0.15 34 1009.6
20260502181952 11 82 6.4 16.1 0.03 0.15 0.15 37 1009.6
20260502181452 11 112 9.7 17.7 0.03 0.15 0.15 35 1010.1
20260502180946 11 91 8.0 17.7 0.03 0.15 0.15 34 1010.1
20260502180655 11 103 8.0 17.7 0.03 0.15 0.15 35 1010.1
20260502170214 12 106 4.8 12.9 0.03 0.13 0.13 32 1010.6
20260502164136 12 104 6.4 17.7 0.03 0.13 0.13 31 1010.8
20260502163629 12 330 6.4 17.7 0.03 0.13 0.13 30 1010.8
20260502163124 11 343 4.8 16.1 0.00 0.10 0.10 27 1010.8
20260502162616 11 345 3.2 14.5 0.00 0.10 0.10 27 1011.2
20260502162338 11 233 4.8 14.5 0.00 0.10 0.10 29 1011.2
20260502161604 11 218 6.4 14.5 0.00 0.10 0.10 27 1011.2
20260502161059 11 226 4.8 14.5 0.00 0.10 0.10 32 1011.2
20260502160553 11 246 4.8 14.5 0.03 0.10 0.10 27 1011.2
20260502151452 11 339 4.8 16.1 0.03 0.10 0.10 30 1011.7
20260502150946 11 240 3.2 12.9 0.03 0.10 0.10 29 1011.7
20260502150441 11 262 3.2 11.3 0.00 0.08 0.08 34 1011.7
20260502130217 6 306 0.0 6.4 0.03 0.05 0.05 47 1012.3
20260502123141 4 332 1.6 12.9 0.03 0.03 0.03 50 1012.4
20260502122634 4 332 4.8 12.9 0.03 0.03 0.03 53 1012.5
20260502122129 4 334 8.0 12.9 0.03 0.03 0.03 52 1012.5
20260502121827 3 9 0.0 11.3 0.03 0.03 0.03 54 1012.5
20260502121717 3 339 4.8 12.9 0.03 0.03 0.03 52 1012.5
20260502120611 3 110 0.0 0.0 0.03 0.03 0.03 54 1012.5
20260502120105 3 110 0.0 0.0 0.03 0.03 0.03 57 1012.5
20260502115558 2 110 0.0 0.0 0.03 0.03 0.03 57 1012.5
20260502115053 2 106 0.0 0.0 0.03 0.03 0.03 56 1012.5
20260502114547 2 106 0.0 0.0 0.00 0.00 0.00 56 1012.5
20260502114304 2 106 0.0 0.0 0.00 0.00 0.00 54 1012.5
20260502113539 2 106 0.0 0.0 0.00 0.00 0.00 55 1012.5
20260502113028 1 106 0.0 0.0 0.00 0.00 0.00 55 1012.5
20260502112523 1 106 0.0 0.0 0.00 0.00 0.00 55 1012.4
20260502112017 1 106 0.0 0.0 0.00 0.00 0.00 55 1012.4
20260502111511 1 106 0.0 0.0 0.00 0.00 0.00 55 1012.4
20260502111005 1 106 0.0 0.0 0.00 0.00 0.00 56 1012.4
20260502110458 1 106 0.0 0.0 0.00 0.00 0.00 55 1012.4
20260502105953 1 106 0.0 0.0 0.00 0.00 0.00 55 1012.4
20260502105446 1 106 0.0 0.0 0.00 0.00 0.00 54 1012.4
20260502104941 1 106 0.0 0.0 0.00 0.00 0.00 54 1012.4
20260502104657 1 106 0.0 0.0 0.00 0.00 0.00 55 1012.5
20260502103927 1 106 0.0 0.0 0.00 0.00 0.00 55 1012.5
20260502103423 1 106 0.0 0.0 0.00 0.00 0.00 55 1012.5
20260502102916 1 106 0.0 0.0 0.00 0.00 0.00 56 1012.4
20260502102411 1 106 0.0 0.0 0.00 0.00 0.00 55 1012.4
20260502101905 1 106 0.0 0.0 0.00 0.00 0.00 56 1012.4
20260502101358 1 106 0.0 0.0 0.00 0.00 0.00 56 1012.6
20260502100853 1 106 0.0 0.0 0.00 0.00 0.00 56 1012.6
20260502100340 1 106 0.0 0.0 0.00 0.00 0.00 56 1012.6
20260502091142 1 106 0.0 0.0 0.00 0.00 0.00 57 1012.7
20260502090631 1 106 0.0 0.0 0.00 0.00 0.00 57 1012.7
20260502090117 1 106 0.0 0.0 0.00 0.00 0.00 57 1012.7
20260502070828 2 106 0.0 0.0 0.00 0.00 0.00 51 1013.2
20260502070322 2 106 0.0 0.0 0.00 0.00 0.00 51 1013.2
20260502065814 2 106 0.0 0.0 0.00 0.00 0.00 51 1013.3
20260502065310 2 106 0.0 0.0 0.00 0.00 0.00 51 1013.3
20260502064804 2 106 0.0 0.0 0.00 0.00 0.00 52 1013.3
20260502064259 2 106 0.0 0.0 0.00 0.00 0.00 53 1013.3
20260502063752 2 106 0.0 0.0 0.00 0.00 0.00 53 1013.3
20260502063247 2 105 0.0 0.0 0.00 0.00 0.00 56 1013.3
20260502062741 2 105 0.0 0.0 0.00 0.00 0.00 55 1013.3
20260502062234 1 105 0.0 0.0 0.00 0.00 0.00 55 1013.3
20260502061727 1 105 0.0 0.0 0.00 0.00 0.00 55 1013.3
20260502061222 1 105 0.0 0.0 0.00 0.00 0.00 56 1013.3
20260502061201 1 105 0.0 0.0 0.00 0.00 0.00 57 1013.3
20260502060211 1 105 0.0 0.0 0.00 0.00 0.00 57 1013.3
20260502055927 1 105 0.0 0.0 0.00 0.00 0.00 56 1013.3
20260502055426 1 105 0.0 0.0 0.00 0.00 0.00 57 1013.3
20260502054650 1 105 0.0 0.0 0.00 0.00 0.00 61 1013.3
20260502054145 1 105 0.0 0.0 0.00 0.00 0.00 59 1013.3
20260502053905 1 105 0.0 0.0 0.00 0.00 0.00 59 1013.3
20260502053135 1 105 0.0 0.0 0.00 0.00 0.00 62 1013.3
20260502052857 1 105 0.0 0.0 0.00 0.00 0.00 58 1013.5
20260502052430 1 105 0.0 0.0 0.00 0.00 0.00 60 1013.5
20260502052327 1 105 0.0 0.0 0.00 0.00 0.00 62 1013.5
20260502051110 1 105 0.0 0.0 0.00 0.00 0.00 60 1013.5
20260502050821 1 105 0.0 0.0 0.00 0.00 0.00 60 1013.5
20260502050317 1 105 0.0 0.0 0.00 0.00 0.00 65 1013.5
20260502045551 1 105 0.0 0.0 0.00 0.00 0.08 66 1013.6
20260502045039 1 105 0.0 0.0 0.00 0.00 0.08 68 1013.6
20260502044816 1 105 0.0 0.0 0.00 0.00 0.08 63 1013.6
20260502044517 1 105 0.0 0.0 0.00 0.00 0.08 62 1013.5
20260502043521 1 105 0.0 0.0 0.00 0.00 0.08 66 1013.5
20260502042508 1 105 0.0 0.0 0.00 0.00 0.08 62 1013.6
20260502042002 1 105 0.0 0.0 0.00 0.00 0.08 63 1013.6
20260502041454 1 105 0.0 0.0 0.00 0.00 0.08 66 1013.7
20260502040952 1 105 0.0 0.0 0.00 0.00 0.08 67 1013.7
20260502040446 1 105 0.0 0.0 0.00 0.00 0.08 69 1013.7
20260502035939 1 105 0.0 0.0 0.00 0.00 0.08 71 1013.7
20260502035434 1 105 0.0 0.0 0.00 0.00 0.08 72 1013.7
20260502035003 1 105 0.0 0.0 0.00 0.00 0.08 70 1013.7
20260502034421 1 105 0.0 0.0 0.00 0.00 0.08 68 1013.8
20260502033916 1 105 0.0 0.0 0.00 0.00 0.08 70 1013.8
20260502033410 1 105 0.0 0.0 0.00 0.00 0.08 70 1013.8
20260502032904 1 105 0.0 0.0 0.00 0.00 0.08 70 1013.7
20260502032354 1 105 0.0 0.0 0.00 0.00 0.08 70 1013.7
20260502031853 1 105 0.0 0.0 0.00 0.00 0.08 68 1013.7
20260502031346 1 105 0.0 0.0 0.00 0.00 0.08 66 1013.6